sat.trackr.live / text

‹ back to catalog

STARLINK-3683

NORAD 53167 · 2022-083AM

PAYLOAD ACTIVE UNKNOWN

§ Identity

Operator
Country
US
Launch date
2022-07-17
Launch site
AFETR
Launch vehicle
Mass (kg)
RCS (m²)

Purposes: comms

External: N2YO · Heavens-Above · Gunter

§ Orbital elements

Epoch: 2026-05-25T01:54:17.186112Z

Period
95.44 min
Inclination
53.2131°
Eccentricity
0.0001203
Mean motion
15.08850944 rev/d
Perigee alt
538.9 km
Apogee alt
540.5 km
Semi-major
6,917.8 km
B*
-2.0922e-4
RAAN
166.1848°
Arg perigee
77.8160°
Mean anomaly
282.2966°
Rev number
21,309

§ Raw data

STARLINK-36831 53167U 22083AM  26145.07936558 -.00003617  00000+0 -20922-3 0  99942 53167  53.2131 166.1848 0001203  77.8160 282.2966 15.08850944213092

JSON: /api/v1/satellites/53167 · /tle

For live sub-satellite position, see the globe view (requires WebGL).

§ Visibility from observer

Set your observer location to see the next 7 days of passes ≥ 10°. The values pass through the URL so the page stays shareable.

No JS? Fill the form by hand. The geolocation button needs JavaScript.